timestamp,wind_dir_avg,wind_spd_avg,wind_spd_max_dir,wind_spd_gust,battery_voltage,lat,long
2023-04-16 00:04:01+00:00,351.0,6.16,338.0,6.68,12.57,47.59359,-54.27349
2023-04-16 00:14:00+00:00,356.0,6.04,358.0,6.39,12.33,47.59359,-54.27349
2023-04-16 00:24:00+00:00,353.0,5.49,353.0,6.0,12.33,47.59359,-54.27349
2023-04-16 00:34:00+00:00,356.0,4.76,359.0,5.64,12.33,47.59359,-54.27349
2023-04-16 00:44:00+00:00,356.0,5.99,356.0,6.51,12.33,47.59359,-54.27349
2023-04-16 00:54:00+00:00,357.0,5.22,353.0,6.12,12.33,47.59359,-54.27349
2023-04-16 01:04:00+00:00,352.0,4.39,351.0,4.75,12.33,47.59359,-54.27349
2023-04-16 01:14:00+00:00,350.0,5.09,343.0,5.87,12.33,47.59359,-54.27349
2023-04-16 01:24:00+00:00,348.0,5.49,343.0,5.83,12.33,47.59359,-54.27349
2023-04-16 01:34:00+00:00,346.0,5.99,330.0,7.23,12.33,47.59359,-54.27349
2023-04-16 01:44:00+00:00,348.0,5.55,326.0,6.27,12.33,47.59359,-54.27349
2023-04-16 01:54:00+00:00,340.0,4.58,327.0,5.38,12.33,47.59359,-54.27349
2023-04-16 02:04:00+00:00,356.0,5.04,357.0,5.65,12.33,47.59359,-54.27349
2023-04-16 02:14:00+00:00,355.0,5.26,356.0,5.73,12.25,47.59359,-54.27349
2023-04-16 02:24:00+00:00,357.0,6.23,358.0,6.53,12.25,47.59359,-54.27349
2023-04-16 02:34:00+00:00,352.0,7.17,325.0,9.43,12.25,47.59359,-54.27349
2023-04-16 02:44:00+00:00,348.0,6.5,334.0,7.3,12.25,47.59359,-54.27349
2023-04-16 02:54:00+00:00,353.0,6.3,353.0,6.45,12.25,47.59359,-54.27349
2023-04-16 03:04:00+00:00,354.0,5.79,355.0,6.21,12.25,47.59359,-54.27349
2023-04-16 03:14:00+00:00,349.0,5.59,322.0,7.02,12.25,47.59359,-54.27349
2023-04-16 03:24:00+00:00,321.0,5.17,325.0,5.55,12.25,47.59359,-54.27349
2023-04-16 03:34:00+00:00,323.0,5.0,323.0,5.45,12.25,47.59359,-54.27349
2023-04-16 03:44:00+00:00,328.0,5.46,330.0,5.85,12.25,47.59359,-54.27349
2023-04-16 03:54:00+00:00,324.0,5.96,324.0,6.27,12.25,47.59359,-54.27349
2023-04-16 04:04:00+00:00,325.0,6.05,325.0,6.64,12.25,47.59359,-54.27349
2023-04-16 04:14:00+00:00,333.0,5.67,335.0,6.14,12.25,47.59359,-54.27349
2023-04-16 04:24:00+00:00,334.0,5.91,331.0,6.43,12.25,47.59359,-54.27349
2023-04-16 04:34:00+00:00,332.0,6.29,330.0,6.89,12.25,47.59359,-54.27349
2023-04-16 04:44:00+00:00,337.0,5.55,335.0,6.12,12.25,47.59359,-54.27349
2023-04-16 04:54:00+00:00,358.0,4.39,356.0,5.17,12.25,47.59359,-54.27349
2023-04-16 05:04:00+00:00,0.0,3.89,359.0,4.26,12.25,47.59359,-54.27349
2023-04-16 05:14:00+00:00,49.0,2.36,52.0,2.91,12.17,47.59359,-54.27349
2023-04-16 05:24:00+00:00,29.0,2.61,35.0,3.02,12.17,47.59359,-54.27349
2023-04-16 05:34:00+00:00,36.0,3.56,35.0,3.91,12.17,47.59359,-54.27349
2023-04-16 05:44:00+00:00,11.0,4.38,15.0,5.43,12.17,47.59359,-54.27349
2023-04-16 05:54:00+00:00,27.0,4.23,31.0,4.85,12.17,47.59359,-54.27349
2023-04-16 06:04:00+00:00,32.0,4.38,31.0,5.18,12.17,47.59359,-54.27349
2023-04-16 06:14:00+00:00,37.0,4.98,36.0,5.51,12.17,47.59359,-54.27349
2023-04-16 06:24:00+00:00,29.0,5.07,28.0,5.59,12.17,47.59359,-54.27349
2023-04-16 06:34:00+00:00,32.0,4.53,32.0,5.03,12.17,47.59359,-54.27349
2023-04-16 06:44:00+00:00,33.0,3.16,34.0,4.16,12.17,47.59359,-54.27349
2023-04-16 06:54:00+00:00,34.0,2.34,38.0,3.28,12.17,47.59359,-54.27349
2023-04-16 07:04:00+00:00,286.0,0.46,280.0,0.64,12.17,47.59359,-54.27349
2023-04-16 07:14:01+00:00,23.0,1.83,27.0,2.12,12.17,47.59359,-54.27349
2023-04-16 07:24:01+00:00,353.0,2.49,350.0,3.03,12.17,47.59359,-54.27349
2023-04-16 07:34:01+00:00,9.0,3.15,10.0,3.75,12.17,47.59359,-54.27349
2023-04-16 07:44:01+00:00,12.0,2.67,10.0,3.27,12.17,47.59359,-54.27349
2023-04-16 07:54:01+00:00,3.0,2.05,5.0,2.21,12.17,47.59359,-54.27349
2023-04-16 08:04:01+00:00,16.0,2.18,18.0,2.43,12.17,47.59359,-54.27349
2023-04-16 08:14:01+00:00,2.0,1.49,358.0,1.69,12.09,47.59359,-54.27349
2023-04-16 08:24:01+00:00,157.0,0.47,177.0,0.88,12.09,47.59359,-54.27349
2023-04-16 08:34:01+00:00,110.0,1.45,108.0,2.2,12.09,47.59359,-54.27349
2023-04-16 08:44:01+00:00,88.0,1.96,95.0,2.59,12.09,47.59359,-54.27349
2023-04-16 08:54:01+00:00,55.0,3.04,54.0,3.38,12.09,47.59359,-54.27349
2023-04-16 09:04:01+00:00,21.0,3.67,18.0,3.96,12.09,47.59359,-54.27349
2023-04-16 09:14:00+00:00,17.0,3.38,18.0,3.62,12.09,47.59359,-54.27349
2023-04-16 09:24:00+00:00,0.0,3.29,3.0,3.7,12.09,47.59359,-54.27349
2023-04-16 09:34:00+00:00,353.0,2.46,349.0,2.66,12.09,47.59359,-54.27349
2023-04-16 09:44:00+00:00,339.0,1.84,344.0,2.13,12.09,47.59359,-54.27349
2023-04-16 09:54:00+00:00,277.0,1.01,279.0,1.73,12.09,47.59359,-54.27349
2023-04-16 10:04:00+00:00,297.0,1.14,299.0,1.28,12.09,47.59359,-54.27349
2023-04-16 10:14:00+00:00,245.0,0.24,272.0,2.81,13.29,47.59359,-54.27349
2023-04-16 10:24:00+00:00,121.0,1.61,118.0,1.78,13.29,47.59359,-54.27349
2023-04-16 10:34:00+00:00,124.0,1.71,120.0,2.0,13.29,47.59359,-54.27349
2023-04-16 10:44:00+00:00,84.0,2.11,89.0,2.75,13.29,47.59359,-54.27349
2023-04-16 10:54:00+00:00,311.0,0.41,316.0,0.63,13.29,47.59359,-54.27349
2023-04-16 11:04:00+00:00,264.0,0.54,267.0,0.82,13.29,47.59359,-54.27349
2023-04-16 11:14:00+00:00,215.0,0.44,106.0,1.81,13.76,47.59359,-54.27349
2023-04-16 11:24:00+00:00,117.0,1.33,104.0,2.72,13.76,47.59359,-54.27349
2023-04-16 11:34:00+00:00,139.0,1.46,118.0,2.57,13.76,47.59359,-54.27349
2023-04-16 11:44:00+00:00,128.0,2.68,118.0,3.79,13.76,47.59359,-54.27349
2023-04-16 11:54:00+00:00,169.0,1.0,123.0,2.0,13.76,47.59359,-54.27349
2023-04-16 12:04:00+00:00,135.0,3.28,125.0,4.07,13.76,47.59359,-54.27349
2023-04-16 12:14:01+00:00,127.0,3.42,126.0,3.57,14.32,47.59359,-54.27349
2023-04-16 12:24:01+00:00,156.0,2.24,133.0,2.94,14.32,47.59359,-54.27349
2023-04-16 12:34:01+00:00,189.0,2.45,194.0,2.53,14.32,47.59359,-54.27349
2023-04-16 12:44:01+00:00,140.0,4.01,137.0,4.23,14.32,47.59359,-54.27349
2023-04-16 12:54:01+00:00,146.0,4.18,143.0,4.44,14.32,47.59359,-54.27349
2023-04-16 13:04:01+00:00,148.0,4.29,149.0,4.57,14.32,47.59359,-54.27349
2023-04-16 13:14:01+00:00,155.0,4.92,158.0,5.31,14.0,47.59359,-54.27349
2023-04-16 13:24:01+00:00,155.0,5.55,158.0,5.77,14.0,47.59359,-54.27349
2023-04-16 13:34:01+00:00,167.0,5.58,165.0,5.96,14.0,47.59359,-54.27349
2023-04-16 13:44:01+00:00,168.0,5.42,165.0,5.92,14.0,47.59359,-54.27349
2023-04-16 13:54:01+00:00,207.0,6.4,214.0,7.15,14.0,47.59359,-54.27349
2023-04-16 14:04:01+00:00,185.0,5.61,210.0,6.66,14.0,47.59359,-54.27349
2023-04-16 14:14:00+00:00,188.0,6.37,207.0,7.52,13.84,47.59359,-54.27349
2023-04-16 14:24:00+00:00,208.0,8.5,210.0,9.27,13.84,47.59359,-54.27349
2023-04-16 14:34:00+00:00,203.0,7.58,204.0,9.01,13.84,47.59359,-54.27349
2023-04-16 14:44:00+00:00,194.0,6.89,209.0,8.33,13.84,47.59359,-54.27349
2023-04-16 14:54:00+00:00,191.0,7.29,207.0,8.61,13.84,47.59359,-54.27349
2023-04-16 15:04:00+00:00,207.0,8.53,208.0,9.56,13.84,47.59359,-54.27349
2023-04-16 15:14:01+00:00,207.0,8.64,209.0,9.88,13.6,47.59359,-54.27349
2023-04-16 15:24:01+00:00,208.0,8.74,211.0,9.78,13.6,47.59359,-54.27349
2023-04-16 15:34:01+00:00,210.0,9.79,203.0,10.81,13.6,47.59359,-54.27349
2023-04-16 15:44:01+00:00,215.0,10.41,213.0,12.02,13.6,47.59359,-54.27349
2023-04-16 15:54:01+00:00,211.0,10.15,210.0,11.42,13.6,47.59359,-54.27349
2023-04-16 16:04:01+00:00,210.0,9.51,210.0,10.85,13.6,47.59359,-54.27349
2023-04-16 16:14:01+00:00,208.0,9.17,211.0,10.36,13.68,47.59359,-54.27349
2023-04-16 16:24:01+00:00,210.0,9.61,209.0,11.21,13.68,47.59359,-54.27349
2023-04-16 16:34:01+00:00,207.0,8.94,207.0,10.17,13.68,47.59359,-54.27349
2023-04-16 16:44:01+00:00,213.0,8.94,216.0,10.19,13.68,47.59359,-54.27349
2023-04-16 16:54:01+00:00,212.0,10.81,214.0,12.22,13.68,47.59359,-54.27349
2023-04-16 17:04:01+00:00,211.0,11.16,213.0,12.93,13.68,47.59359,-54.27349
2023-04-16 17:14:00+00:00,209.0,11.1,210.0,12.51,14.4,47.59359,-54.27349
2023-04-16 17:24:00+00:00,214.0,11.28,220.0,12.45,14.4,47.59359,-54.27349
2023-04-16 17:34:00+00:00,214.0,10.75,209.0,12.03,14.4,47.59359,-54.27349
2023-04-16 17:44:00+00:00,210.0,11.39,212.0,12.55,14.4,47.59359,-54.27349
2023-04-16 17:54:00+00:00,212.0,10.4,209.0,11.93,14.4,47.59359,-54.27349
2023-04-16 18:04:00+00:00,212.0,11.22,216.0,12.63,14.4,47.59359,-54.27349
2023-04-16 18:14:00+00:00,212.0,9.98,211.0,11.42,14.24,47.59359,-54.27349
2023-04-16 18:24:00+00:00,209.0,10.27,209.0,11.3,14.24,47.59359,-54.27349
2023-04-16 18:34:00+00:00,207.0,8.95,210.0,10.13,14.24,47.59359,-54.27349
2023-04-16 18:44:00+00:00,212.0,9.84,211.0,10.97,14.24,47.59359,-54.27349
2023-04-16 18:54:00+00:00,214.0,9.15,214.0,10.17,14.24,47.59359,-54.27349
2023-04-16 19:04:00+00:00,212.0,9.6,213.0,10.77,14.24,47.59359,-54.27349
2023-04-16 19:14:00+00:00,216.0,9.47,217.0,10.25,13.68,47.59359,-54.27349
2023-04-16 19:24:00+00:00,219.0,9.07,218.0,10.31,13.68,47.59359,-54.27349
2023-04-16 19:34:00+00:00,212.0,7.83,223.0,9.63,13.68,47.59359,-54.27349
2023-04-16 19:44:00+00:00,212.0,8.94,213.0,10.21,13.68,47.59359,-54.27349
2023-04-16 19:54:00+00:00,210.0,9.4,212.0,10.32,13.68,47.59359,-54.27349
2023-04-16 20:04:00+00:00,209.0,8.36,210.0,9.23,13.68,47.59359,-54.27349
2023-04-16 20:14:00+00:00,213.0,9.53,214.0,10.78,13.68,47.59359,-54.27349
2023-04-16 20:24:00+00:00,212.0,9.6,218.0,11.79,13.68,47.59359,-54.27349
2023-04-16 20:34:00+00:00,217.0,9.49,219.0,10.45,13.68,47.59359,-54.27349
2023-04-16 20:44:00+00:00,216.0,8.54,222.0,9.6,13.68,47.59359,-54.27349
2023-04-16 20:54:00+00:00,217.0,8.1,223.0,10.0,13.68,47.59359,-54.27349
2023-04-16 21:04:00+00:00,218.0,8.36,213.0,9.31,13.68,47.59359,-54.27349
2023-04-16 21:14:01+00:00,216.0,9.43,217.0,10.46,13.53,47.59359,-54.27349
2023-04-16 21:24:01+00:00,219.0,9.0,219.0,10.16,13.53,47.59359,-54.27349
2023-04-16 21:34:01+00:00,216.0,8.89,222.0,9.79,13.53,47.59359,-54.27349
2023-04-16 21:44:01+00:00,215.0,8.25,222.0,9.32,13.53,47.59359,-54.27349
2023-04-16 21:54:01+00:00,215.0,8.8,219.0,10.46,13.53,47.59359,-54.27349
2023-04-16 22:04:01+00:00,217.0,9.51,218.0,10.53,13.53,47.59359,-54.27349
2023-04-16 22:14:00+00:00,215.0,8.78,217.0,9.78,13.13,47.59359,-54.27349
2023-04-16 22:24:00+00:00,214.0,8.64,211.0,9.76,13.13,47.59359,-54.27349
2023-04-16 22:34:00+00:00,216.0,8.3,217.0,8.96,13.13,47.59359,-54.27349
2023-04-16 22:44:00+00:00,215.0,7.63,215.0,8.4,13.13,47.59359,-54.27349
2023-04-16 22:54:00+00:00,218.0,7.51,217.0,9.19,13.13,47.59359,-54.27349
2023-04-16 23:04:00+00:00,218.0,7.72,220.0,9.21,13.13,47.59359,-54.27349
2023-04-16 23:14:01+00:00,217.0,7.18,221.0,8.02,12.57,47.59359,-54.27349
2023-04-16 23:24:01+00:00,212.0,6.41,214.0,7.14,12.57,47.59359,-54.27349
2023-04-16 23:34:01+00:00,222.0,6.13,218.0,6.87,12.57,47.59359,-54.27349
2023-04-16 23:44:01+00:00,215.0,6.1,218.0,6.75,12.57,47.59359,-54.27349
2023-04-16 23:54:01+00:00,223.0,6.27,224.0,6.73,12.57,47.59359,-54.27349
